Location: Unspecified
(0.0000°N, 0.0000°E)
Time: 20:33:13
(UTC+00:00)

PSAT 2 - Visible Passes

Search period start: 10 August 2022 00:00
Search period end: 20 August 2022 00:00
Orbit: 287 x 577 km, 28.5° (Epoch: 09 August)

Date Brightness Start Highest point End Pass type
(mag) Time Alt. Az. Time Alt. Az. Time Alt. Az.
17 Aug ? 19:28:20 10° NNE 19:28:52 10° NNE 19:28:57 10° NNE visible
18 Aug ? 20:17:28 10° NW 20:18:24 15° NW 20:18:24 15° NW visible
19 Aug ? 19:31:06 10° NNW 19:34:43 30° NNE 19:34:43 30° NNE visible
